Regional Weather Roundup
Issued by NWS

Home | Current Version | Previous Version | Graphics & Text | Print | Product List | Glossary Off
Versions: 1 2 3 4 5 6 7 8 9 10 11 12 13 14 15 16 17 18 19 20 21 22 23 24 25 26 27 28 29 30 31 32 33 34 35 36 37 38 39 40 41 42 43 44 45 46 47 48 49 50

000
ASUS43 KTOP 041508
RWRKS

WEATHER ROUNDUP FOR KANSAS
NATIONAL WEATHER SERVICE GOODLAND KS
900 AM CST SUN DEC 04 2016

NOTE:  "FAIR" INDICATES FEW OR NO CLOUDS BELOW 12,000 FEET WITH NO
SIGNIFICANT WEATHER AND/OR OBSTRUCTIONS TO VISIBILITY.

KSZ001>006-013>018-027>032-041>047-041600-
NORTHWEST KANSAS

CITY           SKY/WX    TMP DP  RH WIND       PRES   REMARKS
GOODLAND       SUNNY     27  13  55 W9        30.05R
HAYS           SUNNY     32  26  78 NW15      30.05S WCI  22
HILL CITY      SUNNY     28  21  75 W10       30.06R WCI  19
RUSSELL        SUNNY     32  26  78 NW13      30.03R WCI  22
$$

KSZ061>065-074>080-084>089-041600-
SOUTHWEST KANSAS

CITY           SKY/WX    TMP DP  RH WIND       PRES   REMARKS
DODGE CITY     SUNNY     31  24  75 NW12      30.08R WCI  22
ELKHART          N/A     25  16  69 W6          N/A
GARDEN CITY    SUNNY     26  19  74 NW12      30.08R WCI  16
GREAT BEND     SUNNY     34  29  82 W7        30.05S
LIBERAL        SUNNY     28  23  80 NW8       30.10S
PRATT          SUNNY     32  30  93 NW10      30.06S WCI  24
$$

KSZ066>073-081>083-090>101-041600-
SOUTHEAST KANSAS

CITY           SKY/WX    TMP DP  RH WIND       PRES   REMARKS
CHANUTE        CLOUDY    42  39  89 NW8       30.04R
COFFEYVILLE    CLOUDY    43  41  93 W6        30.06R
HUTCHINSON     CLOUDY    35  34  96 W10       30.07R FOG     WCI  27
MEDICINE LODGE   N/A     35  34  96 N10       30.07R WCI  27
NEWTON         FOG       36  36 100 NW10      30.06R VSB 3/4 WCI  28
PARSONS        CLOUDY    42  41  96 W7        30.06R
WICHITA INTL   CLOUDY    40  37  89 NW12      30.06R WCI  33
WICHITA JABRA  CLOUDY    40  37  89 NW10      30.05R WCI  33
WICHITA MCCONL CLOUDY    40  37  90 W10       30.05R WCI  34
WINFIELD       MOSUNNY   42  42 100 NW6       30.07R
$$

KSZ007>012-019>026-033>040-048>060-102>105-041600-
NORTHEAST KANSAS

CITY           SKY/WX    TMP DP  RH WIND       PRES   REMARKS
CONCORDIA      CLOUDY    32  32 100 W8        30.03S FOG
EMPORIA        PTSUNNY   39  37  92 W5        30.03R
LAWRENCE       CLOUDY    39  38  96 W3        30.03S
MANHATTAN      CLOUDY    36  34  92 W8        30.04R FOG
MARYSVILLE     CLOUDY    34  32  93 W7        30.02R
OLATHE IND     CLOUDY    37  36  96 W6        30.02S
OLATHE EXE     CLOUDY    36  34  92 W8        30.02S
SALINA         CLOUDY    35  34  96 NW8       30.07R
TOPEKA BILLARD PTSUNNY   39  37  92 SW3       30.02F
TOPEKA FORBES  MOSUNNY   40  37  89 SW6       30.02S
$$



USA.gov is the U.S. government's official web portal to all federal, state and local government web resources and services.